Terug naar catalogus

STARLINK-35805

ActiefCommunicatieVLEO
NORAD 66359·PAYLOAD·🇺🇸 United States

Gelanceerd Nov 6, 2025 vanaf Vandenberg Space Force Base

Loading…

Volgende Passages (komende 24 uur)

TLE

VersSource: CelesTrak SupGP

Epoch: Sep 14, 2026, 23:17 UTC

1 66359C 25254M   26257.97062500  .00028640  00000+0  92115-3 0  2575
2 66359  53.1583  71.5852 0001259  78.7884 116.4918 15.31681839    19

Volg STARLINK-35805 in realtime met AllMySat

Download on the App Store